EW8824 Weather Reports


time (UTC)temp
F
wind
direction
speed
knots
gust
knots
rain 1hr
in
rain 24hr
in
rain mn
in
humidity
%
barometer
mb
20260905190403 95 347 0.9 3.5 0.00 0.33 0.33 62 1014.1
20260905185902 94 153 0.9 5.2 0.00 0.33 0.33 62 1014.1
20260905185403 94 170 3.5 5.2 0.00 0.33 0.33 62 1014.2
20260905184903 94 167 1.7 4.3 0.00 0.33 0.33 65 1014.3
20260905184405 94 188 1.7 4.3 0.00 0.33 0.33 63 1014.3
20260905184231 94 175 1.7 3.5 0.00 0.33 0.33 65 1014.3
20260905183403 94 148 1.7 3.5 0.00 0.33 0.33 65 1014.4
20260905182901 93 351 0.9 5.2 0.00 0.33 0.33 63 1014.6
20260905182403 93 52 3.5 5.2 0.00 0.33 0.33 63 1014.7
20260905181901 93 144 0.9 3.5 0.00 0.33 0.33 63 1014.7
20260905181400 93 101 0.9 3.5 0.00 0.33 0.33 65 1014.8
20260905180902 93 173 2.6 5.2 0.00 0.33 0.33 63 1014.8
20260905180733 93 173 0.9 5.2 0.00 0.33 0.33 64 1014.8
20260905180233 92 157 1.7 4.3 0.00 0.33 0.33 66 1014.7
20260905175402 92 136 0.9 5.2 0.00 0.33 0.33 66 1014.8
20260905174900 92 192 2.6 5.2 0.00 0.33 0.33 64 1014.7
20260905174403 92 238 0.9 2.6 0.00 0.33 0.33 69 1014.8
20260905173905 92 93 0.9 6.1 0.00 0.33 0.33 65 1014.9
20260905173724 91 175 1.7 6.1 0.00 0.33 0.33 68 1014.8
20260905173212 91 109 1.7 5.2 0.00 0.33 0.33 67 1014.9
20260905172341 91 213 2.6 5.2 0.00 0.33 0.33 68 1015.1
20260905172203 91 127 0.9 7.0 0.00 0.33 0.33 69 1015.0
20260905171330 90 141 4.3 7.0 0.00 0.33 0.33 69 1014.8
20260905170830 90 215 1.7 7.8 0.00 0.33 0.33 69 1014.9
20260905170700 90 153 4.3 7.8 0.00 0.33 0.33 68 1015.0
20260905165828 91 128 3.5 7.0 0.00 0.33 0.33 68 1015.0
20260905165329 90 147 3.5 10.4 0.00 0.33 0.33 66 1015.0
20260905164828 90 131 4.3 10.4 0.00 0.33 0.33 68 1015.0
20260905164328 90 195 2.6 7.0 0.00 0.33 0.33 70 1015.0
20260905163829 90 144 4.3 7.8 0.00 0.33 0.33 70 1015.0
20260905163330 89 144 3.5 7.8 0.00 0.33 0.33 71 1015.0
20260905162829 89 157 3.5 7.0 0.00 0.33 0.33 69 1015.1
20260905162331 89 174 3.5 7.0 0.00 0.33 0.33 69 1015.2
20260905161827 89 174 3.5 6.1 0.00 0.33 0.33 74 1015.2
20260905161322 88 155 4.3 7.8 0.00 0.33 0.33 71 1015.3
20260905161156 88 156 4.3 9.6 0.00 0.33 0.33 71 1015.3
20260905160317 88 131 7.0 9.6 0.00 0.33 0.33 70 1015.2
20260905155817 88 161 3.5 9.6 0.00 0.33 0.33 71 1015.3
20260905155309 88 119 2.6 8.7 0.00 0.33 0.33 71 1015.3
20260905154809 87 129 6.1 8.7 0.00 0.33 0.33 71 1015.4
20260905154304 88 147 5.2 7.8 0.00 0.33 0.33 71 1015.6
20260905153802 87 188 4.3 7.0 0.00 0.33 0.33 72 1015.4
20260905153303 87 136 1.7 7.0 0.00 0.33 0.33 75 1015.4
20260905152802 86 102 3.5 9.6 0.00 0.33 0.33 74 1015.2
20260905152305 86 116 1.7 10.4 0.00 0.33 0.33 75 1015.4
20260905151802 86 125 5.2 10.4 0.00 0.33 0.33 73 1015.3
20260905151300 85 130 4.3 9.6 0.00 0.33 0.33 75 1015.4
20260905150800 85 105 3.5 7.8 0.00 0.33 0.33 75 1015.7
20260905150301 85 55 2.6 7.8 0.00 0.33 0.33 74 1015.6
20260905145800 85 140 3.5 7.8 0.00 0.33 0.33 76 1015.6
20260905145638 84 181 1.7 7.8 0.00 0.33 0.33 77 1015.6
20260905145137 84 69 3.5 7.8 0.00 0.33 0.33 76 1015.4
20260905144301 84 144 1.7 7.0 0.00 0.33 0.33 80 1015.7
20260905143801 83 122 1.7 7.0 0.00 0.33 0.33 81 1015.7
20260905143301 82 355 2.6 7.0 0.00 0.33 0.33 81 1015.8
20260905143141 82 99 3.5 7.0 0.00 0.33 0.33 83 1015.8
20260905142301 81 152 0.9 5.2 0.00 0.33 0.33 86 1016.0
20260905141800 80 64 1.7 5.2 0.00 0.33 0.33 88 1015.7
20260905141301 80 78 0.9 5.2 0.00 0.33 0.33 87 1015.6
20260905140802 79 23 0.9 6.1 0.00 0.33 0.33 90 1015.8
20260905140637 79 32 1.7 8.7 0.00 0.33 0.33 89 1015.9
20260905135801 78 49 2.6 8.7 0.00 0.33 0.33 89 1015.8
20260905135300 78 49 2.6 8.7 0.00 0.33 0.33 89 1016.0
20260905134800 78 38 1.7 5.2 0.00 0.33 0.33 90 1015.9
20260905134300 79 331 0.9 1.7 0.00 0.33 0.33 91 1015.4
20260905133804 79 331 0.0 0.0 0.00 0.33 0.33 91 1015.4
20260905133302 79 331 0.0 0.0 0.01 0.33 0.33 92 1015.3
20260905132805 78 331 0.0 0.9 0.01 0.33 0.33 92 1015.4
20260905132301 78 331 0.0 1.7 0.03 0.33 0.33 93 1015.6
20260905131803 78 331 0.0 1.7 0.04 0.33 0.33 94 1015.6
20260905131301 77 331 0.9 1.7 0.05 0.33 0.33 94 1015.6
20260905130801 77 331 0.0 0.0 0.07 0.33 0.33 95 1015.4
20260905130302 76 331 0.0 0.9 0.09 0.33 0.33 95 1015.4
20260905125801 76 331 0.0 1.7 0.12 0.22 0.33 95 1015.4
20260905125305 75 331 0.9 1.7 0.14 0.22 0.33 96 1015.3
20260905124800 74 331 0.0 0.0 0.17 0.22 0.33 95 1015.3
20260905124636 73 331 0.0 0.0 0.20 0.22 0.33 94 1015.2
20260905123806 73 331 0.0 0.0 0.22 0.22 0.33 94 1015.2
20260905123302 73 331 0.0 0.9 0.22 0.22 0.32 93 1015.1
20260905122804 72 331 0.0 0.9 0.23 0.22 0.31 93 1015.1
20260905122301 72 331 0.0 0.9 0.23 0.22 0.30 93 1015.1
20260905121802 72 294 0.0 0.0 0.23 0.22 0.29 93 1015.0
20260905121627 72 294 0.0 0.0 0.23 0.22 0.27 93 1015.0
20260905120803 72 294 0.0 0.9 0.22 0.22 0.25 92 1015.0
20260905120632 72 294 0.0 1.7 0.21 0.22 0.23 92 1015.0
20260905115804 72 78 0.9 2.6 0.19 0.03 0.21 92 1015.0
20260905115636 72 290 1.7 2.6 0.18 0.03 0.18 91 1014.9
20260905114805 72 273 0.0 0.0 0.16 0.03 0.16 91 1015.1
20260905114302 72 273 0.0 1.7 0.13 0.03 0.13 91 1015.1
20260905113801 72 273 0.9 1.7 0.11 0.03 0.11 91 1015.1
20260905113259 72 273 0.9 1.7 0.10 0.03 0.10 91 1015.0
20260905112755 72 273 0.9 5.2 0.09 0.03 0.08 90 1015.0
20260905112619 73 273 1.7 8.7 0.07 0.03 0.07 90 1014.9
20260905111947 73 265 3.5 10.4 0.05 0.03 0.05 89 1015.0
20260905111852 73 215 3.5 10.4 0.06 0.03 0.06 89 1014.8
20260905110730 74 143 5.2 11.3 0.04 0.03 0.04 89 1015.1
20260905110231 74 277 6.1 11.3 0.03 0.03 0.03 89 1015.3
20260905110100 74 333 5.2 21.7 0.02 0.00 0.02 89 1015.2
20260905105228 74 305 13.9 21.7 0.01 0.00 0.00 89 1014.9
20260905104729 74 306 1.7 7.0 0.00 0.00 0.00 94 1014.8
20260905104601 74 291 0.9 2.6 0.00 0.00 0.00 94 1014.7
20260905104053 73 291 1.7 2.6 0.00 0.00 0.00 94 1014.7
20260905103231 73 101 0.0 0.0 0.00 0.00 0.00 94 1014.4
20260905103042 73 101 0.0 0.0 0.00 0.00 0.00 93 1014.2
20260905102229 73 101 0.0 0.0 0.00 0.00 0.00 93 1014.2
20260905101728 73 101 0.0 0.0 0.00 0.00 0.00 93 1014.2
20260905101227 73 101 0.0 0.0 0.00 0.00 0.00 93 1014.2
20260905100723 73 101 0.0 0.0 0.00 0.00 0.00 93 1014.3
20260905100218 73 101 0.0 0.0 0.00 0.00 0.00 93 1014.3
20260905095716 73 101 0.0 0.0 0.00 0.00 0.00 93 1014.3
20260905095210 73 101 0.0 0.0 0.00 0.00 0.00 93 1014.2
20260905094706 73 101 0.0 0.0 0.00 0.00 0.00 93 1014.4
20260905094203 73 101 0.0 0.0 0.00 0.00 0.00 93 1014.3
20260905093704 73 101 0.0 0.0 0.00 0.00 0.00 93 1014.2
20260905093203 73 101 0.0 0.0 0.00 0.00 0.00 93 1014.2
20260905093024 73 101 0.0 0.0 0.00 0.00 0.00 93 1014.1
20260905092201 74 101 0.0 0.0 0.00 0.00 0.00 93 1014.0
20260905091702 74 101 0.0 0.0 0.00 0.00 0.00 93 1014.0
20260905091201 74 101 0.0 0.0 0.00 0.00 0.00 93 1014.0
20260905090704 74 101 0.0 0.0 0.00 0.00 0.00 93 1013.9
20260905090203 74 101 0.0 0.0 0.00 0.00 0.00 93 1014.0
20260905085702 74 101 0.0 0.0 0.00 0.00 0.00 93 1013.9
20260905085203 74 101 0.0 0.0 0.00 0.00 0.00 93 1013.8
20260905084704 74 101 0.0 0.0 0.00 0.00 0.00 93 1013.8
20260905084534 74 101 0.0 0.0 0.00 0.00 0.00 93 1013.8
20260905084029 74 101 0.0 0.0 0.00 0.00 0.00 93 1013.7
20260905083203 74 101 0.0 0.0 0.00 0.00 0.00 92 1013.8
20260905082705 74 101 0.0 0.0 0.00 0.00 0.00 92 1013.8
20260905082201 74 101 0.0 0.0 0.00 0.00 0.00 92 1013.7
20260905081703 74 101 0.0 0.0 0.00 0.00 0.00 93 1013.6
20260905081202 74 101 0.0 0.0 0.00 0.00 0.00 93 1013.7
20260905080705 74 101 0.0 0.0 0.00 0.00 0.00 93 1013.7
20260905080205 74 101 0.0 0.0 0.00 0.00 0.00 93 1013.7
20260905080039 74 101 0.0 0.0 0.00 0.00 0.00 93 1013.8
20260905075204 74 101 0.0 0.0 0.00 0.00 0.00 93 1013.8
20260905074700 74 101 0.0 0.0 0.00 0.00 0.00 93 1013.7
20260905074202 75 101 0.0 0.0 0.00 0.00 0.00 93 1013.7
20260905073701 74 101 0.0 0.0 0.00 0.00 0.00 93 1013.8
20260905073531 74 101 0.0 0.0 0.00 0.00 0.00 93 1013.8
20260905072704 74 101 0.0 0.0 0.00 0.00 0.00 92 1013.8
20260905072533 75 101 0.0 0.0 0.00 0.00 0.00 92 1014.0
20260905071701 75 101 0.0 0.0 0.00 0.00 0.00 93 1014.0
20260905071527 75 101 0.0 0.0 0.00 0.00 0.00 93 1014.1
20260905070704 75 101 0.0 0.0 0.00 0.00 0.00 93 1014.1
20260905070204 75 101 0.0 0.0 0.00 0.00 0.00 92 1014.1
20260905070027 75 101 0.0 0.0 0.00 0.00 0.00 92 1014.2
20260905065201 75 101 0.0 0.0 0.00 0.00 0.00 92 1014.2
20260905064703 75 101 0.0 0.0 0.00 0.00 0.00 92 1014.1
20260905064201 75 101 0.0 0.0 0.00 0.00 0.00 92 1014.2
20260905063748 75 101 0.0 0.0 0.00 0.00 0.00 92 1014.4
20260905063739 75 101 0.0 0.0 0.00 0.00 0.00 92 1014.4
20260905063718 75 101 0.0 0.0 0.00 0.00 0.00 92 1014.2
20260905062200 75 101 0.0 0.0 0.00 0.00 0.00 92 1014.5
20260905061700 75 101 0.0 0.0 0.00 0.00 0.00 92 1014.6
20260905061201 75 101 0.0 0.0 0.00 0.00 0.00 92 1014.6
20260905060703 75 101 0.0 0.0 0.00 0.00 0.00 92 1014.5
20260905060202 75 101 0.0 0.0 0.00 0.00 0.00 92 1014.6
20260905055706 75 101 0.0 0.0 0.00 0.00 0.00 92 1014.5
20260905055204 75 101 0.0 0.0 0.00 0.00 0.00 92 1014.6
20260905054702 75 101 0.0 0.0 0.00 0.00 0.00 92 1014.7
20260905054201 76 101 0.0 0.0 0.00 0.00 0.00 92 1014.6
20260905053704 76 101 0.0 0.0 0.00 0.00 0.00 92 1014.6
20260905053525 75 101 0.0 0.0 0.00 0.00 0.00 92 1014.6
20260905052701 75 101 0.0 0.0 0.00 0.00 0.00 92 1014.7
20260905052521 76 101 0.0 0.0 0.00 0.00 0.00 92 1014.7
20260905051702 76 101 0.0 0.0 0.00 0.00 0.00 92 1014.7
20260905051200 76 101 0.0 0.0 0.00 0.00 0.00 92 1014.7
20260905050704 76 101 0.0 0.0 0.00 0.00 0.00 92 1014.7
20260905050202 76 101 0.0 0.0 0.00 0.00 0.00 92 1014.7
20260905045703 76 101 0.0 0.0 0.00 0.00 0.00 92 1014.6
20260905045202 76 101 0.0 0.0 0.00 0.00 0.00 92 1014.7
20260905044900 76 101 0.0 0.0 0.00 0.00 0.00 92 1014.7
20260905044816 76 101 0.0 0.0 0.00 0.00 0.00 92 1014.7
20260905043701 76 101 0.0 0.0 0.00 0.00 0.00 91 1014.8
20260905043201 76 101 0.0 0.0 0.00 0.00 0.00 91 1014.7
20260905042701 76 101 0.0 0.0 0.00 0.00 0.00 91 1014.7
20260905042203 76 101 0.0 0.0 0.00 0.00 0.00 91 1014.9
20260905041701 76 101 0.0 0.0 0.00 0.00 0.00 91 1014.9
20260905041201 76 101 0.0 0.0 0.00 0.00 0.00 91 1014.9
20260905041030 77 101 0.0 0.0 0.00 0.00 0.00 91 1014.8
20260905040203 77 101 0.0 0.0 0.00 0.00 0.00 91 1014.8
20260905035704 77 101 0.0 0.0 0.00 0.00 0.00 91 1014.8
20260905035203 77 101 0.0 0.0 0.00 0.00 0.00 91 1014.8
20260905034702 77 101 0.0 0.0 0.00 0.00 0.00 91 1014.9
20260905034202 77 101 0.0 0.0 0.00 0.00 0.00 91 1014.8
20260905033847 77 101 0.0 0.0 0.00 0.00 0.00 90 1014.9
20260905033808 77 101 0.0 0.0 0.00 0.00 0.00 91 1014.9
20260905032702 77 101 0.0 0.0 0.00 0.00 0.00 90 1015.0
20260905032203 77 101 0.0 0.0 0.00 0.00 0.00 90 1015.0
20260905032022 77 101 0.0 0.0 0.00 0.00 0.00 90 1015.0
20260905031201 78 101 0.0 0.0 0.00 0.00 0.00 90 1015.0
20260905030702 78 101 0.0 0.0 0.00 0.00 0.00 90 1015.0
20260905030203 78 101 0.0 0.0 0.00 0.00 0.00 90 1015.0
20260905025705 78 101 0.0 0.0 0.00 0.00 0.00 90 1015.1
20260905025532 78 101 0.0 0.0 0.00 0.00 0.00 90 1015.0
20260905024700 78 101 0.0 0.0 0.00 0.00 0.00 89 1015.1
20260905024200 78 101 0.0 0.0 0.00 0.00 0.00 89 1015.1
20260905023702 78 101 0.0 0.0 0.00 0.00 0.00 89 1015.1
20260905023203 78 101 0.0 0.0 0.00 0.00 0.00 90 1015.1
20260905022701 78 101 0.0 0.0 0.00 0.00 0.00 89 1015.1
20260905022201 79 101 0.0 0.0 0.00 0.00 0.00 89 1015.1
20260905021702 79 101 0.0 0.0 0.00 0.00 0.00 89 1015.0
20260905021520 79 101 0.0 0.0 0.00 0.00 0.00 89 1015.1
20260905020702 79 101 0.0 0.0 0.00 0.00 0.00 89 1015.2
20260905020204 79 101 0.0 0.0 0.00 0.00 0.00 89 1015.2
20260905015701 79 101 0.0 0.0 0.00 0.00 0.00 88 1015.2
20260905015523 80 101 0.0 0.0 0.00 0.00 0.00 88 1015.2
20260905015029 80 101 0.0 0.0 0.00 0.00 0.00 88 1015.1
20260905014526 80 101 0.0 0.0 0.00 0.00 0.00 88 1014.9
20260905013720 80 101 0.0 0.0 0.00 0.00 0.00 86 1014.9
20260905013716 80 101 0.0 0.0 0.00 0.00 0.00 86 1014.9
20260905013705 80 101 0.0 0.0 0.00 0.00 0.00 87 1015.0
20260905012201 81 101 0.0 0.0 0.00 0.00 0.00 86 1014.9
20260905011705 81 101 0.0 0.0 0.00 0.00 0.00 85 1014.8
20260905011202 82 101 0.0 0.0 0.00 0.00 0.00 86 1014.9
20260905011035 82 101 0.0 0.0 0.00 0.00 0.00 85 1014.8
20260905010151 82 101 0.0 0.0 0.00 0.00 0.00 85 1014.7
20260905005644 83 101 0.0 0.0 0.00 0.00 0.00 85 1014.7
20260905005140 83 101 0.0 0.0 0.00 0.00 0.00 84 1014.5
20260905004959 83 101 0.0 0.0 0.00 0.00 0.00 83 1014.6
20260905004131 84 101 0.0 0.0 0.00 0.00 0.00 83 1014.6
20260905003629 84 101 0.0 0.0 0.00 0.00 0.00 83 1014.6
20260905003325 85 101 0.0 0.0 0.00 0.00 0.00 81 1014.6
20260905003234 85 101 0.0 0.0 0.00 0.00 0.00 82 1014.6
20260905002129 85 101 0.0 0.0 0.00 0.00 0.00 79 1014.6
20260905001631 86 101 0.0 0.0 0.00 0.00 0.00 79 1014.6
20260905001129 87 101 0.0 0.0 0.00 0.00 0.00 78 1014.5
20260905000631 87 101 0.0 0.0 0.00 0.00 0.00 77 1014.4
20260905000129 88 101 0.0 0.0 0.00 0.00 0.00 75 1014.4
20260904235635 89 101 0.0 0.0 0.00 0.00 0.00 74 1014.4
20260904235131 89 101 0.0 0.0 0.00 0.00 0.00 74 1014.4
20260904234631 90 101 0.0 0.0 0.00 0.00 0.00 74 1014.4
20260904234127 91 101 0.0 0.0 0.00 0.00 0.00 74 1014.4
20260904233623 91 101 0.0 0.0 0.00 0.00 0.00 72 1014.5
20260904233120 92 101 0.0 0.0 0.00 0.00 0.00 72 1014.4
20260904232618 92 101 0.0 0.0 0.00 0.00 0.00 73 1014.4
20260904232114 93 101 0.0 0.0 0.00 0.00 0.00 73 1014.4
20260904231610 93 101 0.0 0.0 0.00 0.00 0.00 72 1014.4
20260904231102 93 101 0.0 0.0 0.00 0.00 0.00 72 1014.4
20260904230605 93 101 0.0 0.0 0.00 0.00 0.00 72 1014.4
20260904230105 93 101 0.0 0.0 0.00 0.00 0.00 71 1014.4
20260904225604 93 101 0.0 0.0 0.00 0.00 0.00 71 1014.4
20260904225257 93 101 0.0 0.0 0.00 0.00 0.00 71 1014.6
20260904225213 94 101 0.0 0.0 0.00 0.00 0.00 70 1014.5
20260904224307 93 101 0.0 0.0 0.00 0.00 0.00 71 1014.8
20260904224217 93 101 0.0 0.0 0.00 0.00 0.00 71 1014.7
20260904223104 93 101 0.0 0.0 0.00 0.00 0.00 69 1014.8
20260904222604 94 101 0.0 0.0 0.00 0.00 0.00 70 1014.6
20260904222103 95 101 0.0 0.0 0.00 0.00 0.00 69 1014.7
20260904221602 96 101 0.0 0.0 0.00 0.00 0.00 67 1014.8
20260904221103 96 101 0.0 0.0 0.00 0.00 0.00 64 1014.8
20260904220926 97 101 0.0 0.0 0.00 0.00 0.00 64 1014.8
20260904220105 98 101 0.0 0.0 0.00 0.00 0.00 63 1014.8
20260904215602 98 101 0.0 0.0 0.00 0.00 0.00 64 1014.9
20260904215101 98 101 0.0 0.0 0.00 0.00 0.00 61 1014.9
20260904214602 98 101 0.0 0.0 0.00 0.00 0.00 59 1014.9
20260904214102 99 101 0.0 0.0 0.00 0.00 0.00 60 1014.9
20260904213557 99 101 0.0 0.0 0.00 0.00 0.00 61 1014.8
20260904213055 99 101 0.0 1.7 0.00 0.00 0.00 51 1015.0
20260904212919 98 101 0.0 1.7 0.00 0.00 0.00 57 1015.0
20260904212042 98 101 0.9 1.7 0.00 0.00 0.00 58 1015.0
20260904211540 99 101 0.9 1.7 0.00 0.00 0.00 53 1015.0
20260904211033 98 101 0.0 2.6 0.00 0.00 0.00 52 1015.1
20260904210526 98 101 0.9 2.6 0.00 0.00 0.00 53 1015.1
20260904210018 99 101 0.9 2.6 0.00 0.00 0.00 53 1015.1
20260904205516 99 101 0.9 2.6 0.00 0.00 0.00 51 1015.1
20260904205005 100 101 0.9 2.6 0.00 0.00 0.00 53 1015.2
20260904204502 100 0 0.0 2.6 0.00 0.00 0.00 49 1015.3
20260904204004 99 0 1.7 3.5 0.00 0.00 0.00 57 1015.4
20260904203503 99 317 1.7 3.5 0.00 0.00 0.00 53 1015.4
20260904203003 99 275 0.9 4.3 0.00 0.00 0.00 56 1015.4
20260904202503 98 34 2.6 4.3 0.00 0.00 0.00 55 1015.6
20260904202002 98 119 0.9 2.6 0.00 0.00 0.00 53 1015.7
20260904201503 98 109 0.9 2.6 0.00 0.00 0.00 52 1015.8
20260904201005 99 287 0.9 2.6 0.00 0.00 0.00 56 1015.8
20260904200502 98 73 0.9 2.6 0.00 0.00 0.00 56 1015.9
20260904200002 98 347 0.9 2.6 0.00 0.00 0.00 57 1015.9
20260904195503 97 61 0.9 4.3 0.00 0.00 0.00 54 1016.0
20260904195003 97 74 1.7 4.3 0.00 0.00 0.00 55 1016.1
20260904194833 96 22 0.9 4.3 0.00 0.00 0.00 63 1016.2
20260904194000 96 96 1.7 4.3 0.00 0.00 0.00 60 1016.4
20260904193501 96 61 0.9 4.3 0.00 0.00 0.00 59 1016.6
20260904193001 97 21 1.7 4.3 0.00 0.00 0.00 61 1016.7
20260904192504 98 25 1.7 4.3 0.00 0.00 0.00 54 1016.9
20260904192000 98 5 1.7 7.8 0.00 0.00 0.00 54 1016.9
20260904191837 98 296 3.5 7.8 0.00 0.00 0.00 53 1016.9